FLOCK 2P-8 (41613 NORAD) Tracking and Keplerian Element Data

This shows tracking and keplerian element data for the satellite.

Feedback or suggestion? Click here.




ElementValue
Catalog41613
NameFLOCK 2P-8
Epoch Orbit36566
Epoch Day14.1265916
Epoch Year2023
RAAN76.0552
Inclination97.2089
Eccentricity0.0006279
Argument of Perigee59.5343
Mean Anonmoly300.653
Mean Motion15.53624814
Decay Rate0.00130645
L11 41613U 16040Q 23014.12659160 .00130645 00000+0 20186-2 0 9993
L22 41613 97.2089 76.0552 0006279 59.5343 300.6530 15.53624814365662



Live tracking and technical data element details for FLOCK 2P-8 (NORAD 41613). FLOCK 2P-8 can be tracked NOW for your location showing map with azimuth and elevation plus other details from your city location.







IsCatalogInMostPopularTable: catalog: 41613, numindb: 472
Update: records affected: 1



GetName: 41613 FLOCK 2P-8

Hit Count: updated at: Sat, 24 May 2025 16:27:12 GMT